Home > Time Zones > World Clock > Weather > U.S.A. > Erie > Past weeks

Flag for U.S.A. Weather past 2 weeks in Erie, Pennsylvania, U.S.A.

Now
77 °F

Scattered clouds.


Feels Like: 79 °F
Forecast: 68 / 79 °F
Wind: 7 mph from Northwest

Location: Erie International Airport

Current Time: Jul 6, 2015 at 12:04:46 PM

Latest Report: Jul 6, 2015 at 11:02 AM


Visibility: 10 mi

Pressure: 30.08 "Hg

Humidity: 69%

Dew point: 66 °F

Location of ErieLocation

Historic Weather in Erie — Graph

°F

Erie temperature yesterday

Maximum temperature yesterday: 76 °F (at 10:51 AM)
Minimum temperature yesterday: 58 °F (at 4:51 AM)
Average temperature yesterday: 69 °F

Past Weeks' High & Low Weather Summary

 TemperatureHumidityPressure
High86 °F (Jun 22, 4:51 PM)90% (Jun 26, 3:51 AM)30.15 "Hg (Jun 26, 3:51 AM)
Low52 °F (Jul 3, 3:51 AM)37% (Jun 24, 5:51 PM)29.59 "Hg (Jun 28, 4:51 AM)
Average67 °F69%29.93 "Hg
* Reported Jun 21 11:01 AM — Jul 6 10:51 AM, Erie, Weather by CustomWeather, © 2015

Note: Actual official high and low records may vary slightly from our data, if they occured in-between our weather recording intervals... More about our weather records

Advertising

Erie weather history for previous 24 hours

 ConditionsComfort  
Time TempWeatherWind HumidityBarometerVisibility
10:51 AM
Mon, Jul 6
76 °FPartly sunny.7 mph72%30.07 "Hg10 mi
9:51 AM77 °FOvercast.9 mph66%30.06 "Hg10 mi
8:51 AM74 °FScattered clouds.9 mph71%30.06 "Hg10 mi
7:51 AM71 °FScattered clouds.13 mph73%30.07 "Hg10 mi
6:51 AM69 °FOvercast.10 mph73%30.07 "Hg10 mi
5:51 AM68 °FPassing clouds.9 mph76%30.05 "Hg10 mi
4:51 AM68 °FClear.9 mph73%30.05 "Hg10 mi
3:51 AM68 °FClear.9 mph70%30.05 "Hg10 mi
2:51 AM68 °FClear.8 mph70%30.07 "Hg10 mi
1:51 AM69 °FClear.6 mph68%30.07 "Hg10 mi
12:51 AM69 °FClear.7 mph73%30.08 "Hg10 mi
11:51 PM
Sun, Jul 5
66 °FClear.No wind75%30.09 "Hg9 mi
10:51 PM66 °FClear.No wind73%30.10 "Hg10 mi
9:51 PM69 °FSunny.No wind63%30.10 "Hg10 mi
8:51 PM71 °FSunny.5 mph57%30.09 "Hg10 mi
7:51 PM74 °FSunny.8 mph50%30.10 "Hg10 mi
6:51 PM74 °FSunny.7 mph50%30.09 "Hg10 mi
5:51 PM76 °FSunny.7 mph48%30.10 "Hg10 mi
4:51 PM75 °FSunny.8 mph54%30.12 "Hg10 mi
3:51 PM76 °FSunny.9 mph48%30.13 "Hg10 mi
2:51 PM76 °FSunny.7 mph48%30.13 "Hg10 mi
1:51 PM76 °FSunny.8 mph47%30.14 "Hg10 mi
12:51 PM76 °FSunny.8 mph47%30.14 "Hg10 mi
Weather by CustomWeather, © 2015

See weather overviewHow to use our weather pages